This is the latest recevied weather packets stored in our database for station/object KF4UQS-14. If no packets are shown the sender has not sent any weather packets the latest 10 day(s).
| Time | Temp. | Humidity | Pressure | Rain* | Wind** | Luminosity | Snow |
|---|---|---|---|---|---|---|---|
| 1778248212 | 15.56° C | 72% | 1017.2 hPa | 0 mm | - | 56 W/m² | - |
| 1778247909 | 15.56° C | 72% | 1017.3 hPa | 0 mm | - | 55 W/m² | - |
| 1778247606 | 15.56° C | 74% | 1017.3 hPa | 0 mm | - | 55 W/m² | - |
| 1778247303 | 15° C | 78% | 1017 hPa | 0 mm | - | 54 W/m² | - |
| 1778246999 | 15° C | 77% | 1017.1 hPa | 0 mm | - | 52 W/m² | - |
| 1778246698 | 15° C | 78% | 1017.1 hPa | 0 mm | - | 51 W/m² | - |
| 1778246394 | 15° C | 80% | 1017 hPa | 0 mm | - | 50 W/m² | - |
| 1778246089 | 15° C | 79% | 1016.9 hPa | 0 mm | - | 48 W/m² | - |
| 1778245786 | 14.44° C | 80% | 1016.9 hPa | 0 mm | - | 47 W/m² | - |
| 1778245484 | 15° C | 80% | 1016.9 hPa | 0 mm | - | 46 W/m² | - |
| 1778245179 | 14.44° C | 83% | 1016.8 hPa | 0 mm | - | 45 W/m² | - |
| 1778244875 | 14.44° C | 84% | 1016.8 hPa | 0 mm | - | 44 W/m² | - |
| 1778244573 | 14.44° C | 85% | 1016.8 hPa | 0 mm | - | 43 W/m² | - |
| 1778244271 | 13.89° C | 87% | 1016.6 hPa | 0 mm | - | 43 W/m² | - |
| 1778243968 | 13.33° C | 89% | 1016.8 hPa | 0 mm | - | 42 W/m² | - |
| 1778243667 | 12.78° C | 96% | 1016.6 hPa | 0 mm | - | 42 W/m² | - |
| 1778243363 | 12.78° C | 98% | 1016.5 hPa | 0 mm | - | 41 W/m² | - |
| 1778243060 | 12.78° C | 99% | 1016.6 hPa | 0 mm | - | 40 W/m² | - |
| 1778242757 | 12.22° C | 99% | 1016.7 hPa | 0 mm | - | 40 W/m² | - |
| 1778242455 | 11.67° C | 99% | 1016.5 hPa | 0 mm | - | 39 W/m² | - |
| 1778242153 | 11.67° C | 99% | 1016.5 hPa | 0 mm | - | 39 W/m² | - |
| 1778241850 | 11.11° C | 99% | 1016.6 hPa | 0 mm | - | 39 W/m² | - |
| 1778241548 | 11.11° C | 99% | 1016.3 hPa | 0 mm | - | 38 W/m² | - |
| 1778241246 | 11.11° C | 99% | 1016.1 hPa | 0 mm | - | 37 W/m² | - |
| 1778240941 | 10.56° C | 99% | 1016.2 hPa | 0 mm | - | 36 W/m² | - |
* Rain latest hour (hover to see other rain measurements)
** Current wind speed in m/s (hover to see current wind gust speed)